Simultaneous Nadir Overpasses (SNOs) Predictions

Prediction of SNOs between METOP-B and NOAA-19 Satellite Orbit:

Table of predicted SNOs for the next 14.0 days since TLE Epoch: 3/23/2017
Index Date (METOP-B) Time (METOP-B) Lat,Lon (METOP-B) SZA (METOP-B ) Date (NOAA-19) Time (NOAA-19) Lat,Lon (NOAA-19) SZA (NOAA-19 ) Distance(km) Time Diff (sec)
1 03/31/2017 08:22:05 76.99, 58.50 72.66 03/31/2017 08:20:51 76.99, 58.47 72.66 0.79 74
2 03/31/2017 09:12:47 -76.97,-134.24 107.38 03/31/2017 09:11:47 -76.99,-134.24 107.37 1.89 60
3 03/31/2017 10:03:27 76.97, 33.08 72.61 03/31/2017 10:02:52 76.97, 33.09 72.60 0.66 35
4 03/31/2017 10:54:09 -76.96,-159.65 107.43 03/31/2017 10:53:48 -76.96,-159.62 107.42 1.09 21
5 03/31/2017 11:44:49 76.95, 7.67 72.56 03/31/2017 11:44:53 76.94, 7.71 72.55 2.03 4
6 03/31/2017 12:35:31 -76.94, 174.93 107.47 03/31/2017 12:35:49 -76.93, 175.00 107.48 1.72 18
7 03/31/2017 13:26:11 76.93, -17.75 72.51 03/31/2017 13:26:55 76.95, -17.85 72.53 3.28 44
8 03/31/2017 14:16:53 -76.92, 149.52 107.52 03/31/2017 14:17:50 -76.90, 149.62 107.53 2.97 57
9 03/31/2017 15:07:41 76.56, -44.54 72.10 03/31/2017 15:08:48 76.58, -41.80 72.16 71.04 67




NCC Satellite Simultaneous Nadir Overpasses (SNOs) Prediction Service
